Location: Erp
(42.9417°N, 1.2009°E)
Time: 23:27:21
(UTC+00:00)

Cosmos 1959 Rocket - Pass Details

Date: 25 April 2026
Orbit: 946 x 997 km, 82.9° (Epoch: 15 May)

Event Time Altitude Azimuth Distance (km) Brightness Sun altitude
Rises 20:33:42 0° 226° (SW) 3,698 7.6 -17.5°
Reaches altitude 10° 20:36:50 10° 241° (WSW) 2,748 7.1 -18.0°
Maximum altitude 20:41:39 23° 291° (WNW) 1,982 6.9 -18.6°
Drops below altitude 10° 20:46:28 10° 342° (NNW) 2,737 7.7 -19.3°
Sets 20:49:36 0° 357° (N) 3,680 8.2 -19.7°
